Location: B�di�
(14.6834°N, 3.1047°W)
Time: 04:17:51
(UTC+00:00)

Centaur AC-112 - Pass Details

Date: 24 January 2020
Orbit: 298 x 20506 km, 26.7° (Epoch: 18 February)

Event Time Altitude Azimuth Distance (km) Brightness Sun altitude
Rises 18:47:43 0° 298° (WNW) 1,973 5.9 -10.1°
Reaches altitude 10° 18:50:25 10° 348° (NNW) 1,272 4.1 -10.8°
Maximum altitude 18:51:08 11° 6° (N) 1,321 4.0 -10.9°
Drops below altitude 10° 18:51:58 10° 23° (NNE) 1,505 4.2 -11.1°
Enters shadow 18:52:22 - 30° (NNE) 1,635 4.3 -11.2°
